Location: Helion Bumpstead
(52.0500°N, 0.4000°E)
Time: 21:00:25
(UTC+00:00)

Lacrosse 5 rocket - Pass Details

Date: 15 November 2025
Orbit: 406 x 491 km, 57.0° (Epoch: 14 December)

Event Time Altitude Azimuth Distance (km) Brightness Sun altitude
Exits shadow 04:31:20 29° 61° (ENE) 813 2.7 -25.5°
Drops below altitude 10° 04:33:20 10° 85° (E) 1,500 4.6 -25.2°
Enters shadow 05:29:24 -69° 294° (WNW) 12,454 8.1 -16.6°
Maximum altitude 06:07:17 63° 215° (SW) 470 0.9 -10.9°
